Simultaneous Nadir Overpasses (SNOs) Predictions

Prediction of SNOs between METOP-A and TERRA Satellite Orbit:

Table of predicted SNOs for the next 14.0 days since TLE Epoch: 7/31/2012
Index Date (METOP-A) Time (METOP-A) METOP-A Lat,Lon Date (TERRA) Time (TERRA) TERRA Lat,Lon Distance(km) Time Diff (sec)
1 08/01/2012 19:50:27 81.31, -70.62 08/01/2012 19:51:34 81.31, -70.62 0.67 67
2 08/01/2012 20:41:07 -81.31, 97.06 08/01/2012 20:41:01 -81.31, 96.92 2.49 6
3 08/04/2012 15:24:51 81.31, -4.33 08/04/2012 15:25:48 81.30, -4.44 2.06 57
4 08/04/2012 16:15:30 -81.31, 163.35 08/04/2012 16:15:13 -81.32, 163.51 2.67 17
5 08/07/2012 10:59:14 81.30, 61.91 08/07/2012 11:00:00 81.30, 62.03 2.00 46
6 08/07/2012 11:49:53 -81.31,-130.02 08/07/2012 11:49:26 -81.32,-129.99 0.71 27
7 08/10/2012 06:33:37 81.31, 128.49 08/10/2012 06:34:13 81.30, 128.41 1.72 36
8 08/10/2012 07:24:16 -81.32, -63.44 08/10/2012 07:23:39 -81.32, -63.58 2.46 37
9 08/13/2012 02:08:00 81.31,-164.98 08/13/2012 02:08:25 81.31,-164.92 0.99 25




NCC Satellite Simultaneous Nadir Overpasses (SNOs) Prediction Service
